• Processing (Info)

  • MPEC 2014-J38 : 2014 HS184

    The following Minor Planet Electronic Circular may be linked-to from your own Web pages, but must not otherwise be redistributed electronically.

    A form allowing access to any MPEC is at the bottom of this page.


    Read MPEC 2014-J37 Read MPEC 2014-J39


    M.P.E.C. 2014-J38                                Issued 2014 May 4, 14:31 UT
    
         The Minor Planet Electronic Circulars contain information on unusual
             minor planets and routine data on comets.  They are published
       on behalf of Commission 20 of the International Astronomical Union by the
              Minor Planet Center, Smithsonian Astrophysical Observatory,
                              Cambridge, MA 02138, U.S.A.
    
                 Prepared using the Tamkin Foundation Computer Network
    
                                  MPC@CFA.HARVARD.EDU
                URL https://www.minorplanetcenter.net/    ISSN 1523-6714
    
                                      2014 HS184
    
    Observations:
         K14HI4S* C2014 04 29.35878 15 02 25.526-04 35 46.80         21.1 wLEJ038F51
         K14HI4S  C2014 04 29.37134 15 02 26.204-04 35 40.14         21.7 wLEJ038F51
         K14HI4S  C2014 04 29.38391 15 02 26.870-04 35 34.02         21.2 wLEJ038F51
         K14HI4S  C2014 04 29.39649 15 02 27.517-04 35 27.85         20.9 wLEJ038F51
         K14HI4S =C2014 04 30.56789 15 03 44.80 -04 25 27.7          20.2  tEJ038568
         K14HI4S =C2014 04 30.56914 15 03 44.88 -04 25 26.9          20.2  tEJ038568
         K14HI4S =C2014 04 30.57043 15 03 44.95 -04 25 26.2          20.5  tEJ038568
         K14HI4S  C2014 05 03.25442315 07 06.38 -04 02 07.7          20.1 RtEJ038H01
         K14HI4S  C2014 05 03.25826115 07 06.62 -04 02 05.7          20.1 RtEJ038H01
         K14HI4S  C2014 05 03.27893915 07 07.93 -04 01 54.6          20.2 RtEJ038H01
         K14HI4S  C2014 05 03.28724415 07 08.46 -04 01 50.2          20.3 RtEJ038H01
         K14HI4S KC2014 05 04.24170 15 08 25.54 -03 53 21.2          20.2 RqEJ038H36
         K14HI4S  C2014 05 04.24362 15 08 26.33 -03 53 16.1          19.9 RoEJ038926
         K14HI4S KC2014 05 04.24685 15 08 25.87 -03 53 18.5          20.2 RqEJ038H36
         K14HI4S  C2014 05 04.26007 15 08 27.50 -03 53 06.8          20.2 RoEJ038926
         K14HI4S KC2014 05 04.26072 15 08 26.86 -03 53 10.8          20.1 RqEJ038H36
         K14HI4S KC2014 05 04.27317415 08 27.33 -03 53 04.8          20.3 VqEJ038H21
         K14HI4S  C2014 05 04.27595 15 08 28.55 -03 52 57.9          20.3 RoEJ038926
         K14HI4S KC2014 05 04.27838415 08 27.68 -03 53 01.9          20.5 VqEJ038H21
         K14HI4S KC2014 05 04.28382915 08 28.06 -03 52 58.9          20.0 VqEJ038H21
    
    Observer details:
    568 Mauna Kea.  Observers R. J. Wainscoat, D. Woodworth.  Measurers P. Veres,
        R. J. Wainscoat.  3.6-m Canada-France-Hawaii Telescope + CCD.
    926 Tenagra II Observatory.  Observers M. Schwartz, P. R. Holvorcem.  0.81-m
        f/7 Ritchey-Chretien + CCD.
    F51 Pan-STARRS 1, Haleakala.  Observers N. Primak, A. Schultz, T. Goggia,
        M. Willman.  Measurer PS1 Science Consortium.  1.8-m Ritchey-Chretien
        + CCD.
    H01 Magdalena Ridge Observatory, Socorro.  Observers W. H. Ryan, E. V. Ryan.
        Measurer W. H. Ryan.  2.4-m f/8.9 reflector + CCD.
    H21 Astronomical Research Observatory, Westfield.  Observer R. Holmes.
        Measurers T. Vorobjov, L. Buzzi, S. Foglia, T. Linder.  0.61-m f/4.0
        astrograph + CCD.
    H36 Sandlot Observatory, Scranton.  Observer G. Hug.  0.56-m reflector + CCD.
    
    Orbital elements:
    2014 HS184                                               Earth MOID = 0.0179 AU
    Epoch 2014 May 23.0 TT = JDT 2456800.5                  MPC
    M 347.87542              (2000.0)            P               Q
    n   0.36090350     Peri.  170.87296     +0.13579380     +0.98998794
    a   1.9537785      Node   106.92445     -0.91150528     +0.14007552
    e   0.4708176      Incl.    2.30767     -0.38822437     +0.01739884
    P   2.73           H   22.8           G   0.15           U   7
    Residuals in seconds of arc
    140429 F51  0.1-  0.2-    140503 H01  0.0   0.1+    140504 926  0.2+  0.2-
    140429 F51  0.0   0.2+    140503 H01  0.1-  0.1+    140504 H36  0.6+  0.2+
    140429 F51  0.1+  0.1+    140503 H01  0.1-  0.2+    140504 H21  0.1+  0.1-
    140429 F51  0.0   0.1-    140503 H01  0.0   0.2+    140504 926  0.0   0.2+
    140430 568  0.1-  0.0     140504 H36  0.0   0.1+    140504 H21  0.0   0.0
    140430 568  0.0   0.1+    140504 926  0.8-  0.8-    140504 H21  0.2+  0.1+
    140430 568  0.1-  0.1+    140504 H36  0.2-  0.0
    
    Ephemeris:
    2014 HS184               a,e,i = 1.95, 0.47, 2                   q = 1.0339
    Date    TT    R. A. (2000) Decl.     Delta      r     Elong.  Phase     V
    2014 04 04    14 39 21.5 -07 15 44   0.4022  1.3708   153.1    19.3    22.5
    ...
    2014 04 19    14 52 20.8 -05 55 00   0.2831  1.2776   163.0    13.3    21.4
    ...
    2014 04 27    14 59 52.8 -04 55 04   0.2297  1.2307   166.2    11.3    20.8
    ...
    2014 05 03    15 06 45.5 -04 03 56   0.1939  1.1975   166.7    11.2    20.3
    2014 05 04    15 08 05.1 -03 55 00   0.1882  1.1921   166.6    11.3    20.3
    2014 05 05    15 09 28.6 -03 45 59   0.1827  1.1868   166.5    11.5    20.2
    ...
    2014 05 11    15 19 41.0 -02 49 53   0.1511  1.1564   164.9    13.1    19.8
    ...
    2014 05 19    15 41 21.2 -01 29 53   0.1132  1.1197   161.8    16.4    19.2
    ...
    2014 06 03    17 31 30.8 +01 27 14   0.05780 1.0663   153.5    25.1    17.9
    
    A. U. Tomatic                (C) Copyright 2014 MPC           M.P.E.C. 2014-J38
    

    Read MPEC 2014-J37 Read MPEC 2014-J39


    MPEC number:

    Enter an MPEC number in one of the following forms:

    • 1997-B01 (the full form)
    • J97B01 (the packed version of the full form)
    • B01 (the abbreviated form)